Orbital Elements
Epoch 2007 Mar. 1.0 TT = JDT 2454160.5
T 2007 Feb. 13.92645 TT MPC
q 3.5562079 (2000.0) P Q
z +0.0064776 Peri. 122.89490 +0.71590641 +0.27645388
+/-0.0000011 Node 231.61533 -0.15781676 +0.95857789
e 0.9769645 Incl. 54.87691 +0.68012638 -0.06856880
From 564 observations 2006 June 18-2008 Feb. 26, mean residual 0".5.
|